Weather History for The Dalles, OR

Change the Weather History Date:

Friday, May 9, 2014

  Actual Average Record
Temperature  
Mean Temperature 53 °F -  
Max Temperature 63 °F 72 °F 93 °F (1987)
Min Temperature 45 °F 47 °F 35 °F (1990)
Degree Days  
Heating Degree Days 12    
Growing Degree Days 3 (Base 50)    
Moisture  
Dew Point 43 °F    
Average Humidity 73    
Maximum Humidity 93    
Minimum Humidity 42    
Precipitation  
Precipitation 0.06 in - - ()
Sea Level Pressure  
Sea Level Pressure 29.94 in    
Wind  
Wind Speed 12 mph (NW)    
Max Wind Speed 21 mph    
Max Gust Speed 37 mph    
Visibility 10 miles    
Events Rain    
Averages and records for this station are not official NWS values.
T = Trace of Precipitation, MM = Missing Value Source: NWS Daily Summary

Daily Weather History Graph

Daily Weather History Graph

Search for Another Location

Airport:

Trip Planner

Search our weather history database for the weather conditions in past years. The results will help you decide how hot, cold, wet, or windy it might be!

Date:

Astronomy

May. 09, 2014 Rise Set
Actual Time 5:41 AM PDT 8:21 PM PDT
Civil Twilight 5:07 AM PDT 8:55 PM PDT
Nautical Twilight 4:24 AM PDT 9:39 PM PDT
Astronomical Twilight 3:34 AM PDT 10:28 PM PDT
Moon 3:09 PM PDT (5/9) 3:02 AM PDT (5/9)
Length of Visible Light 15h 48m
Length of Day
14h 40m
Waxing Gibbous, 74% of the Moon is Illuminated
May 9
Waxing Gibbous
May 14
Full
May 21
Last Quarter
May 28
New
Jun 5
First Quarter

Hourly Weather History & Observations

Time (PDT) Temp. Windchill Dew Point Humidity Pressure Visibility Wind Dir Wind Speed Gust Speed Precip Events Conditions
12:53 AM 51.1 °F - 46.0 °F 83% 29.79 in 10.0 mi WNW 9.2 mph - N/A   Overcast
1:53 AM 53.1 °F - 45.0 °F 74% 29.82 in 10.0 mi WNW 16.1 mph - N/A   Overcast
2:53 AM 52.0 °F - 45.0 °F 77% 29.83 in 10.0 mi NNW 10.4 mph - N/A   Overcast
3:53 AM 51.1 °F - 45.0 °F 80% 29.85 in 10.0 mi NNW 9.2 mph - N/A   Overcast
4:53 AM 48.0 °F - 44.1 °F 86% 29.86 in 10.0 mi NNW 6.9 mph - N/A   Scattered Clouds
5:53 AM 48.9 °F - 42.1 °F 77% 29.88 in 10.0 mi NW 6.9 mph - N/A   Overcast
6:53 AM 51.1 °F - 44.1 °F 77% 29.90 in 10.0 mi NNW 10.4 mph - N/A   Mostly Cloudy
8:53 AM 54.0 °F - 44.1 °F 69% 29.94 in 10.0 mi NNW 13.8 mph - N/A   Overcast
9:53 AM 55.0 °F - 45.0 °F 69% 29.94 in 10.0 mi NNW 12.7 mph - 0.00 in   Scattered Clouds
10:53 AM 59.0 °F - 44.1 °F 58% 29.94 in 10.0 mi NW 17.3 mph 25.3 mph N/A   Mostly Cloudy
11:53 AM 60.1 °F - 42.1 °F 51% 29.94 in 10.0 mi NW 18.4 mph 24.2 mph N/A   Scattered Clouds
12:53 PM 61.0 °F - 37.9 °F 42% 29.93 in 10.0 mi WNW 20.7 mph 36.8 mph N/A   Mostly Cloudy
1:53 PM 59.0 °F - 41.0 °F 51% 29.94 in 10.0 mi WNW 19.6 mph 29.9 mph N/A   Mostly Cloudy
2:53 PM 57.9 °F - 41.0 °F 53% 29.96 in 10.0 mi NW 16.1 mph 27.6 mph N/A   Mostly Cloudy
3:53 PM 54.0 °F - 43.0 °F 66% 29.98 in 10.0 mi NNW 16.1 mph - N/A   Mostly Cloudy
4:53 PM 55.0 °F - 42.1 °F 62% 29.96 in 10.0 mi NW 11.5 mph - 0.00 in   Partly Cloudy
5:53 PM 50.0 °F - 44.1 °F 80% 29.99 in 10.0 mi NW 10.4 mph 31.1 mph 0.02 in Rain Light Rain
6:53 PM 48.9 °F - 43.0 °F 80% 29.99 in 10.0 mi NW 15.0 mph - 0.01 in Rain Light Rain
7:53 PM 48.0 °F - 45.0 °F 89% 30.01 in 9.0 mi NW 13.8 mph - 0.02 in Rain Light Rain
8:53 PM 46.9 °F - 45.0 °F 93% 30.00 in 10.0 mi WNW 10.4 mph - 0.01 in   Clear
9:53 PM 46.9 °F - 43.0 °F 86% 30.02 in 10.0 mi NNW 10.4 mph - N/A   Mostly Cloudy
10:53 PM 45.0 °F 40.6 °F 41.0 °F 86% 30.02 in 10.0 mi WNW 8.1 mph - N/A   Partly Cloudy
11:53 PM 46.0 °F - 42.1 °F 86% 30.03 in 10.0 mi Calm Calm - N/A   Mostly Cloudy